Time,TemperatureF,DewpointF,PressureIn,WindDirection,WindDirectionDegrees,WindSpeedMPH,WindSpeedGustMPH,Humidity,HourlyPrecipIn,Conditions,Clouds,dailyrainin,SoftwareType,DateUTC
2013-01-30 00:04:00,49.6,48.8,28.70,NNE,29,5.0,13.0,97,0.00,,,-99.99,Weather View 32 v70,2013-01-30 06:04:00,
2013-01-30 00:09:00,49.3,48.5,28.70,NNE,31,7.0,13.0,97,0.00,,,-99.99,Weather View 32 v70,2013-01-30 06:09:00,
2013-01-30 00:14:00,48.7,47.9,28.70,East,91,7.0,13.0,97,0.00,,,-99.99,Weather View 32 v70,2013-01-30 06:14:00,
2013-01-30 00:19:00,48.2,47.4,28.70,NNE,31,5.0,13.0,97,0.00,,,-99.99,Weather View 32 v70,2013-01-30 06:19:00,
2013-01-30 00:29:00,47.3,46.5,28.70,North,0,8.0,13.0,97,0.00,,,-99.99,Weather View 32 v70,2013-01-30 06:29:00,
2013-01-30 00:34:00,46.9,46.1,28.70,North,351,6.0,13.0,97,0.00,,,-99.99,Weather View 32 v70,2013-01-30 06:34:00,
2013-01-30 00:40:00,46.8,46.0,28.70,North,8,6.0,13.0,97,0.00,,,-99.99,Weather View 32 v70,2013-01-30 06:40:00,
2013-01-30 00:49:00,46.2,45.4,28.70,North,7,7.0,13.0,97,0.00,,,-99.99,Weather View 32 v70,2013-01-30 06:49:00,
2013-01-30 00:54:00,46.0,45.2,28.70,North,10,9.0,13.0,97,0.00,,,-99.99,Weather View 32 v70,2013-01-30 06:54:00,
2013-01-30 00:59:00,45.5,44.7,28.70,North,351,4.0,11.0,97,0.00,,,-99.99,Weather View 32 v70,2013-01-30 06:59:00,
2013-01-30 01:04:00,45.3,44.5,28.70,NNE,33,6.0,11.0,97,0.00,,,-99.99,Weather View 32 v70,2013-01-30 07:04:00,
2013-01-30 01:09:00,45.3,44.5,28.70,East,98,3.0,11.0,97,0.00,,,-99.99,Weather View 32 v70,2013-01-30 07:09:00,
2013-01-30 01:14:00,44.8,44.0,28.67,NE,39,9.0,11.0,97,0.00,,,-99.99,Weather View 32 v70,2013-01-30 07:14:00,
2013-01-30 01:24:00,44.2,43.4,28.67,North,0,7.0,11.0,97,0.00,,,-99.99,Weather View 32 v70,2013-01-30 07:24:00,
2013-01-30 01:29:00,44.1,43.3,28.67,North,10,6.0,11.0,97,0.00,,,-99.99,Weather View 32 v70,2013-01-30 07:29:00,
2013-01-30 01:34:00,43.7,42.9,28.67,NNE,28,6.0,11.0,97,0.00,,,-99.99,Weather View 32 v70,2013-01-30 07:34:00,
2013-01-30 01:44:00,43.3,42.5,28.73,NNW,335,7.0,11.0,97,0.00,,,-99.99,Weather View 32 v70,2013-01-30 07:44:00,
2013-01-30 01:49:00,43.3,42.5,28.73,NNE,23,7.0,11.0,97,0.00,,,-99.99,Weather View 32 v70,2013-01-30 07:49:00,
2013-01-30 01:54:00,43.0,42.2,28.73,NNW,331,6.0,13.0,97,0.00,,,-99.99,Weather View 32 v70,2013-01-30 07:54:00,
2013-01-30 01:59:00,42.4,41.6,28.73,NNE,32,7.0,13.0,97,0.00,,,-99.99,Weather View 32 v70,2013-01-30 07:59:00,
2013-01-30 02:04:00,42.1,41.3,28.73,ENE,66,12.0,13.0,97,0.00,,,-99.99,Weather View 32 v70,2013-01-30 08:04:00,
2013-01-30 02:14:00,41.2,40.4,28.73,NNE,18,11.0,16.0,97,0.00,,,-99.99,Weather View 32 v70,2013-01-30 08:14:00,
2013-01-30 02:20:00,40.8,40.0,28.73,North,356,7.0,16.0,97,0.00,,,-99.99,Weather View 32 v70,2013-01-30 08:20:00,
2013-01-30 02:29:00,40.5,39.7,28.73,North,351,13.0,18.0,97,0.00,,,-99.99,Weather View 32 v70,2013-01-30 08:29:00,
2013-01-30 02:34:00,40.1,39.3,28.73,NNE,19,14.0,18.0,97,0.00,,,-99.99,Weather View 32 v70,2013-01-30 08:34:00,
2013-01-30 02:39:00,39.9,39.1,28.73,NW,326,13.0,18.0,97,0.00,,,-99.99,Weather View 32 v70,2013-01-30 08:39:00,
2013-01-30 02:44:00,39.7,39.0,28.73,NNE,18,10.0,18.0,97,0.00,,,-99.99,Weather View 32 v70,2013-01-30 08:44:00,
2013-01-30 02:53:00,39.6,38.8,28.73,North,11,7.0,18.0,97,0.00,,,-99.99,Weather View 32 v70,2013-01-30 08:53:00,
2013-01-30 02:59:00,39.4,38.6,28.73,NNE,20,11.0,18.0,97,0.00,,,-99.99,Weather View 32 v70,2013-01-30 08:59:00,
2013-01-30 03:04:00,39.4,38.6,28.73,NNE,13,13.0,18.0,97,0.00,,,-99.99,Weather View 32 v70,2013-01-30 09:04:00,
2013-01-30 03:09:00,39.2,38.4,28.73,NE,45,9.0,18.0,97,0.00,,,-99.99,Weather View 32 v70,2013-01-30 09:09:00,
2013-01-30 03:19:00,38.8,38.1,28.73,NE,44,8.0,18.0,97,0.00,,,-99.99,Weather View 32 v70,2013-01-30 09:19:00,
2013-01-30 03:24:00,38.7,37.9,28.73,NE,40,13.0,18.0,97,0.00,,,-99.99,Weather View 32 v70,2013-01-30 09:24:00,
2013-01-30 03:29:00,38.5,37.7,28.64,NNE,21,12.0,18.0,97,0.00,,,-99.99,Weather View 32 v70,2013-01-30 09:29:00,
2013-01-30 03:35:00,38.5,37.7,28.64,NE,43,11.0,18.0,97,0.00,,,-99.99,Weather View 32 v70,2013-01-30 09:35:00,
2013-01-30 03:44:00,38.5,37.7,28.67,NNE,23,7.0,15.0,97,0.00,,,-99.99,Weather View 32 v70,2013-01-30 09:44:00,
2013-01-30 03:49:00,38.5,37.7,28.67,North,8,11.0,15.0,97,0.00,,,-99.99,Weather View 32 v70,2013-01-30 09:49:00,
2013-01-30 03:54:00,38.5,37.7,28.67,NE,35,7.0,15.0,97,0.00,,,-99.99,Weather View 32 v70,2013-01-30 09:54:00,
2013-01-30 03:59:00,38.7,37.9,28.67,WSW,247,5.0,15.0,97,0.00,,,-99.99,Weather View 32 v70,2013-01-30 09:59:00,
2013-01-30 04:09:00,38.7,37.9,28.67,NNW,331,6.0,15.0,97,0.00,,,-99.99,Weather View 32 v70,2013-01-30 10:09:00,
2013-01-30 04:14:00,38.5,37.7,28.73,West,279,5.0,15.0,97,0.00,,,-99.99,Weather View 32 v70,2013-01-30 10:14:00,
2013-01-30 04:19:00,38.5,37.7,28.73,WSW,246,8.0,15.0,97,0.00,,,-99.99,Weather View 32 v70,2013-01-30 10:19:00,
2013-01-30 04:24:00,38.3,37.5,28.73,NNE,13,7.0,15.0,97,0.00,,,-99.99,Weather View 32 v70,2013-01-30 10:24:00,
2013-01-30 04:29:00,38.3,37.5,28.70,NW,326,10.0,15.0,97,0.00,,,-99.99,Weather View 32 v70,2013-01-30 10:29:00,
2013-01-30 04:34:00,38.1,37.3,28.70,North,356,7.0,15.0,97,0.00,,,-99.99,Weather View 32 v70,2013-01-30 10:34:00,
2013-01-30 04:39:00,38.1,37.3,28.70,NNE,14,10.0,13.0,97,0.00,,,-99.99,Weather View 32 v70,2013-01-30 10:39:00,
2013-01-30 04:49:00,37.9,37.2,28.70,NNE,33,5.0,14.0,97,0.00,,,-99.99,Weather View 32 v70,2013-01-30 10:49:00,
2013-01-30 04:55:00,37.9,37.2,28.70,NNE,33,13.0,15.0,97,0.00,,,-99.99,Weather View 32 v70,2013-01-30 10:55:00,
2013-01-30 05:04:00,37.8,37.0,28.67,NE,44,9.0,15.0,97,0.00,,,-99.99,Weather View 32 v70,2013-01-30 11:04:00,
2013-01-30 05:09:00,37.8,37.0,28.67,NNE,29,8.0,15.0,97,0.00,,,-99.99,Weather View 32 v70,2013-01-30 11:09:00,
2013-01-30 05:19:00,37.8,37.0,28.67,North,351,6.0,15.0,97,0.00,,,-99.99,Weather View 32 v70,2013-01-30 11:19:00,
2013-01-30 05:24:00,37.6,36.8,28.67,NNE,27,10.0,15.0,97,0.00,,,-99.99,Weather View 32 v70,2013-01-30 11:24:00,
2013-01-30 05:29:00,37.6,36.8,28.67,NE,42,9.0,15.0,97,0.00,,,-99.99,Weather View 32 v70,2013-01-30 11:29:00,
2013-01-30 05:34:00,37.6,36.8,28.67,NNW,332,6.0,15.0,97,0.00,,,-99.99,Weather View 32 v70,2013-01-30 11:34:00,
2013-01-30 05:39:00,37.6,36.8,28.67,North,4,5.0,15.0,97,0.00,,,-99.99,Weather View 32 v70,2013-01-30 11:39:00,
2013-01-30 05:49:00,37.6,36.8,28.67,NW,325,5.0,15.0,97,0.00,,,-99.99,Weather View 32 v70,2013-01-30 11:49:00,
2013-01-30 05:54:00,37.4,36.6,28.67,NE,50,4.0,15.0,97,0.00,,,-99.99,Weather View 32 v70,2013-01-30 11:54:00,
2013-01-30 05:59:00,37.4,36.6,28.67,NNE,25,11.0,15.0,97,0.00,,,-99.99,Weather View 32 v70,2013-01-30 11:59:00,
2013-01-30 06:04:00,37.2,36.4,28.67,NNE,23,11.0,15.0,97,0.00,,,-99.99,Weather View 32 v70,2013-01-30 12:04:00,
2013-01-30 06:14:00,37.6,36.8,28.64,NE,34,10.0,16.0,97,0.00,,,-99.99,Weather View 32 v70,2013-01-30 12:14:00,
2013-01-30 06:19:00,37.2,36.4,28.64,North,3,10.0,19.0,97,0.00,,,-99.99,Weather View 32 v70,2013-01-30 12:19:00,
2013-01-30 06:24:00,37.2,36.4,28.64,NE,52,8.0,19.0,97,0.00,,,-99.99,Weather View 32 v70,2013-01-30 12:24:00,
2013-01-30 06:29:00,37.0,36.3,28.67,NNE,21,10.0,19.0,97,0.00,,,-99.99,Weather View 32 v70,2013-01-30 12:29:00,
2013-01-30 06:39:00,37.0,36.3,28.67,WNW,294,7.0,19.0,97,0.00,,,-99.99,Weather View 32 v70,2013-01-30 12:39:00,
2013-01-30 06:44:00,37.6,36.8,28.64,North,5,11.0,19.0,97,0.00,,,-99.99,Weather View 32 v70,2013-01-30 12:44:00,
2013-01-30 06:49:00,37.6,36.8,28.64,NE,45,8.0,19.0,97,0.00,,,-99.99,Weather View 32 v70,2013-01-30 12:49:00,
2013-01-30 06:56:00,37.6,36.8,28.64,North,356,7.0,19.0,97,0.00,,,-99.99,Weather View 32 v70,2013-01-30 12:56:00,
2013-01-30 07:04:00,37.0,36.3,28.64,NE,39,5.0,19.0,97,0.00,,,-99.99,Weather View 32 v70,2013-01-30 13:04:00,
2013-01-30 07:14:00,37.4,36.6,28.67,NNW,332,6.0,19.0,97,0.00,,,-99.99,Weather View 32 v70,2013-01-30 13:14:00,
2013-01-30 07:19:00,37.4,36.6,28.67,NE,40,7.0,15.0,97,0.00,,,-99.99,Weather View 32 v70,2013-01-30 13:19:00,
2013-01-30 07:29:00,37.4,36.6,28.67,ENE,64,4.0,15.0,97,0.00,,,-99.99,Weather View 32 v70,2013-01-30 13:29:00,
2013-01-30 07:34:00,37.4,36.6,28.67,NNE,17,6.0,13.0,97,0.00,,,-99.99,Weather View 32 v70,2013-01-30 13:34:00,
2013-01-30 07:44:00,37.4,36.6,28.67,North,356,6.0,14.0,97,0.00,,,-99.99,Weather View 32 v70,2013-01-30 13:44:00,
2013-01-30 07:49:00,37.4,36.6,28.67,NNE,26,7.0,14.0,97,0.00,,,-99.99,Weather View 32 v70,2013-01-30 13:49:00,
2013-01-30 07:56:00,37.6,36.8,28.67,NNW,336,8.0,14.0,97,0.00,,,-99.99,Weather View 32 v70,2013-01-30 13:56:00,
2013-01-30 08:04:00,37.6,36.8,28.64,NE,54,6.0,15.0,97,0.00,,,-99.99,Weather View 32 v70,2013-01-30 14:04:00,
2013-01-30 08:09:00,37.6,36.8,28.64,North,351,13.0,15.0,97,0.00,,,-99.99,Weather View 32 v70,2013-01-30 14:09:00,
2013-01-30 08:14:00,37.8,37.0,28.64,NNE,32,13.0,15.0,97,0.00,,,-99.99,Weather View 32 v70,2013-01-30 14:14:00,
2013-01-30 08:24:00,37.8,37.0,28.64,NE,56,9.0,15.0,97,0.00,,,-99.99,Weather View 32 v70,2013-01-30 14:24:00,
2013-01-30 08:29:00,37.9,37.2,28.64,NE,38,5.0,15.0,97,0.00,,,-99.99,Weather View 32 v70,2013-01-30 14:29:00,
2013-01-30 08:34:00,37.9,37.2,28.64,North,11,8.0,15.0,97,0.00,,,-99.99,Weather View 32 v70,2013-01-30 14:34:00,
2013-01-30 08:39:00,37.9,37.2,28.64,NW,312,5.0,15.0,97,0.00,,,-99.99,Weather View 32 v70,2013-01-30 14:39:00,
2013-01-30 08:49:00,37.9,37.2,28.64,ENE,73,4.0,15.0,97,0.00,,,-99.99,Weather View 32 v70,2013-01-30 14:49:00,
2013-01-30 08:54:00,38.1,37.3,28.64,West,269,5.0,15.0,97,0.00,,,-99.99,Weather View 32 v70,2013-01-30 14:54:00,
2013-01-30 08:59:00,38.7,37.9,28.64,North,351,4.0,15.0,97,0.00,,,-99.99,Weather View 32 v70,2013-01-30 14:59:00,
2013-01-30 09:04:00,38.7,37.9,28.64,ENE,61,3.0,15.0,97,0.00,,,-99.99,Weather View 32 v70,2013-01-30 15:04:00,
2013-01-30 09:09:00,38.7,37.9,28.64,NE,45,8.0,15.0,97,0.00,,,-99.99,Weather View 32 v70,2013-01-30 15:09:00,
2013-01-30 09:19:00,38.5,37.7,28.61,NE,45,6.0,13.0,97,0.00,,,-99.99,Weather View 32 v70,2013-01-30 15:19:00,
2013-01-30 09:24:00,38.8,38.1,28.61,ENE,65,6.0,15.0,97,0.00,,,-99.99,Weather View 32 v70,2013-01-30 15:24:00,
2013-01-30 09:29:00,38.7,37.9,28.61,NNE,17,8.0,15.0,97,0.00,,,-99.99,Weather View 32 v70,2013-01-30 15:29:00,
2013-01-30 09:39:00,38.7,37.9,28.61,ENE,75,6.0,15.0,97,0.00,,,-99.99,Weather View 32 v70,2013-01-30 15:39:00,
2013-01-30 09:44:00,38.7,37.9,28.61,ENE,62,5.0,15.0,97,0.00,,,-99.99,Weather View 32 v70,2013-01-30 15:44:00,
2013-01-30 09:49:00,38.7,37.9,28.61,SE,126,7.0,15.0,97,0.00,,,-99.99,Weather View 32 v70,2013-01-30 15:49:00,
2013-01-30 09:57:00,38.7,37.9,28.61,East,85,6.0,15.0,97,0.00,,,-99.99,Weather View 32 v70,2013-01-30 15:57:00,
2013-01-30 10:04:00,38.7,37.9,28.58,SE,131,4.0,15.0,97,0.00,,,-99.99,Weather View 32 v70,2013-01-30 16:04:00,
2013-01-30 10:09:00,38.7,37.9,28.58,NE,36,6.0,15.0,97,0.00,,,-99.99,Weather View 32 v70,2013-01-30 16:09:00,
2013-01-30 10:14:00,38.7,37.9,28.55,ENE,60,4.0,15.0,97,0.00,,,-99.99,Weather View 32 v70,2013-01-30 16:14:00,
2013-01-30 10:24:00,38.7,37.9,28.55,East,85,5.0,15.0,97,0.00,,,-99.99,Weather View 32 v70,2013-01-30 16:24:00,
2013-01-30 10:29:00,38.7,37.9,28.55,ENE,59,6.0,15.0,97,0.00,,,-99.99,Weather View 32 v70,2013-01-30 16:29:00,
2013-01-30 10:34:00,38.7,37.9,28.55,ENE,57,7.0,13.0,97,0.00,,,-99.99,Weather View 32 v70,2013-01-30 16:34:00,
2013-01-30 10:39:00,38.7,37.9,28.55,ESE,118,6.0,13.0,97,0.00,,,-99.99,Weather View 32 v70,2013-01-30 16:39:00,
2013-01-30 10:49:00,38.8,38.1,28.55,ESE,108,0.0,13.0,97,0.00,,,-99.99,Weather View 32 v70,2013-01-30 16:49:00,
2013-01-30 10:54:00,39.0,38.2,28.55,ESE,104,0.0,10.0,97,0.00,,,-99.99,Weather View 32 v70,2013-01-30 16:54:00,
2013-01-30 10:59:00,38.8,38.1,28.52,SE,129,6.0,10.0,97,0.00,,,-99.99,Weather View 32 v70,2013-01-30 16:59:00,
2013-01-30 11:09:00,39.0,38.2,28.52,East,95,3.0,9.0,97,0.00,,,-99.99,Weather View 32 v70,2013-01-30 17:09:00,
2013-01-30 11:19:00,39.0,38.2,28.52,South,189,4.0,9.0,97,0.00,,,-99.99,Weather View 32 v70,2013-01-30 17:19:00,
2013-01-30 11:24:00,39.2,38.4,28.52,South,176,4.0,9.0,97,0.00,,,-99.99,Weather View 32 v70,2013-01-30 17:24:00,
2013-01-30 11:29:00,39.4,38.6,28.55,WNW,286,0.0,9.0,97,0.00,,,-99.99,Weather View 32 v70,2013-01-30 17:29:00,
2013-01-30 11:39:00,39.7,39.0,28.55,WNW,286,0.0,8.0,97,0.00,,,-99.99,Weather View 32 v70,2013-01-30 17:39:00,
2013-01-30 11:44:00,40.3,39.5,28.52,WNW,287,0.0,6.0,97,0.00,,,-99.99,Weather View 32 v70,2013-01-30 17:44:00,
2013-01-30 11:49:00,40.6,39.9,28.52,WNW,286,3.0,6.0,97,0.00,,,-99.99,Weather View 32 v70,2013-01-30 17:49:00,
2013-01-30 11:54:00,41.0,40.2,28.52,WNW,286,0.0,6.0,97,0.00,,,-99.99,Weather View 32 v70,2013-01-30 17:54:00,
2013-01-30 11:59:00,41.4,40.6,28.49,WNW,299,0.0,6.0,97,0.00,,,-99.99,Weather View 32 v70,2013-01-30 17:59:00,
2013-01-30 12:09:00,41.4,40.6,28.49,WNW,288,0.0,6.0,97,0.00,,,-99.99,Weather View 32 v70,2013-01-30 18:09:00,
2013-01-30 12:14:00,41.5,40.8,28.52,NW,304,0.0,6.0,97,0.00,,,-99.99,Weather View 32 v70,2013-01-30 18:14:00,
2013-01-30 12:19:00,41.5,40.8,28.52,West,264,4.0,6.0,97,0.00,,,-99.99,Weather View 32 v70,2013-01-30 18:19:00,
2013-01-30 12:24:00,41.2,40.4,28.52,WNW,299,5.0,6.0,97,0.00,,,-99.99,Weather View 32 v70,2013-01-30 18:24:00,
2013-01-30 12:29:00,41.2,40.4,28.49,West,261,4.0,6.0,97,0.00,,,-99.99,Weather View 32 v70,2013-01-30 18:29:00,
2013-01-30 12:39:00,41.5,40.8,28.49,WNW,289,5.0,8.0,97,0.00,,,-99.99,Weather View 32 v70,2013-01-30 18:39:00,
2013-01-30 12:44:00,41.5,40.8,28.49,WNW,295,7.0,8.0,97,0.00,,,-99.99,Weather View 32 v70,2013-01-30 18:44:00,
2013-01-30 12:54:00,41.7,40.9,28.49,WSW,241,5.0,8.0,97,0.00,,,-99.99,Weather View 32 v70,2013-01-30 18:54:00,
2013-01-30 12:59:00,41.9,41.1,28.52,WNW,297,6.0,8.0,97,0.00,,,-99.99,Weather View 32 v70,2013-01-30 18:59:00,
2013-01-30 13:04:00,41.9,41.1,28.52,WNW,283,5.0,11.0,97,0.00,,,-99.99,Weather View 32 v70,2013-01-30 19:04:00,
2013-01-30 13:09:00,41.9,41.1,28.52,NW,320,4.0,11.0,97,0.00,,,-99.99,Weather View 32 v70,2013-01-30 19:09:00,
2013-01-30 13:14:00,41.9,41.1,28.49,West,262,5.0,11.0,97,0.00,,,-99.99,Weather View 32 v70,2013-01-30 19:14:00,
2013-01-30 13:24:00,41.7,40.9,28.49,West,266,9.0,15.0,97,0.00,,,-99.99,Weather View 32 v70,2013-01-30 19:24:00,
2013-01-30 13:29:00,41.2,40.4,28.49,WSW,252,4.0,15.0,97,0.00,,,-99.99,Weather View 32 v70,2013-01-30 19:29:00,
2013-01-30 13:34:00,39.9,39.1,28.49,WSW,257,12.0,19.0,97,0.00,,,-99.99,Weather View 32 v70,2013-01-30 19:34:00,
2013-01-30 13:44:00,39.7,39.0,28.52,NW,304,9.0,19.0,97,0.00,,,-99.99,Weather View 32 v70,2013-01-30 19:44:00,
2013-01-30 13:49:00,39.7,39.0,28.52,WNW,297,10.0,19.0,97,0.00,,,-99.99,Weather View 32 v70,2013-01-30 19:49:00,
2013-01-30 13:54:00,39.4,38.6,28.52,WSW,237,4.0,19.0,97,0.00,,,-99.99,Weather View 32 v70,2013-01-30 19:54:00,
2013-01-30 14:00:00,39.4,38.6,28.52,NW,313,4.0,19.0,97,0.00,,,-99.99,Weather View 32 v70,2013-01-30 20:00:00,
2013-01-30 14:09:00,39.2,38.4,28.52,East,94,8.0,19.0,97,0.00,,,-99.99,Weather View 32 v70,2013-01-30 20:09:00,
2013-01-30 14:14:00,38.7,37.6,28.52,NNW,341,7.0,19.0,96,0.00,,,-99.99,Weather View 32 v70,2013-01-30 20:14:00,
2013-01-30 14:24:00,38.3,37.0,28.52,NNE,16,9.0,19.0,95,0.00,,,-99.99,Weather View 32 v70,2013-01-30 20:24:00,
2013-01-30 14:29:00,37.8,36.5,28.55,NNE,16,7.0,19.0,95,0.00,,,-99.99,Weather View 32 v70,2013-01-30 20:29:00,
2013-01-30 14:34:00,37.6,36.3,28.55,North,10,7.0,17.0,95,0.00,,,-99.99,Weather View 32 v70,2013-01-30 20:34:00,
2013-01-30 14:39:00,37.4,36.1,28.55,ENE,68,7.0,17.0,95,0.00,,,-99.99,Weather View 32 v70,2013-01-30 20:39:00,
2013-01-30 14:44:00,37.4,36.1,28.55,North,5,7.0,17.0,95,0.00,,,-99.99,Weather View 32 v70,2013-01-30 20:44:00,
2013-01-30 14:50:00,37.2,36.2,28.55,NW,309,7.0,19.0,96,0.00,,,-99.99,Weather View 32 v70,2013-01-30 20:50:00,
2013-01-30 14:59:00,35.6,34.0,28.55,West,273,11.0,19.0,94,0.00,,,-99.99,Weather View 32 v70,2013-01-30 20:59:00,
2013-01-30 15:04:00,34.3,32.5,28.55,West,259,10.0,19.0,93,0.00,,,-99.99,Weather View 32 v70,2013-01-30 21:04:00,
2013-01-30 15:14:00,33.6,32.3,28.55,North,3,9.0,19.0,95,0.00,,,-99.99,Weather View 32 v70,2013-01-30 21:14:00,
2013-01-30 15:19:00,33.4,32.4,28.55,WNW,303,8.0,19.0,96,0.00,,,-99.99,Weather View 32 v70,2013-01-30 21:19:00,
2013-01-30 15:29:00,33.3,32.5,28.58,WNW,283,7.0,19.0,97,0.00,,,-99.99,Weather View 32 v70,2013-01-30 21:29:00,
2013-01-30 15:34:00,32.9,32.1,28.58,WNW,301,12.0,19.0,97,0.00,,,-99.99,Weather View 32 v70,2013-01-30 21:34:00,
2013-01-30 15:39:00,32.5,31.8,28.58,WNW,297,13.0,19.0,97,0.00,,,-99.99,Weather View 32 v70,2013-01-30 21:39:00,
2013-01-30 15:49:00,32.4,31.6,28.58,WNW,284,11.0,19.0,97,0.00,,,-99.99,Weather View 32 v70,2013-01-30 21:49:00,
2013-01-30 15:54:00,32.5,31.8,28.58,NW,309,9.0,17.0,97,0.00,,,-99.99,Weather View 32 v70,2013-01-30 21:54:00,
2013-01-30 15:59:00,32.4,31.3,28.61,NNE,24,13.0,17.0,96,0.00,,,-99.99,Weather View 32 v70,2013-01-30 21:59:00,
2013-01-30 16:09:00,31.5,29.1,28.61,West,272,10.0,17.0,91,0.00,,,-99.99,Weather View 32 v70,2013-01-30 22:09:00,
2013-01-30 16:14:00,31.6,28.8,28.61,NW,308,13.0,17.0,89,0.00,,,-99.99,Weather View 32 v70,2013-01-30 22:14:00,
2013-01-30 16:19:00,31.5,27.5,28.61,NW,311,13.0,17.0,85,0.00,,,-99.99,Weather View 32 v70,2013-01-30 22:19:00,
2013-01-30 16:29:00,31.5,26.3,28.64,West,279,10.0,17.0,81,0.00,,,-99.99,Weather View 32 v70,2013-01-30 22:29:00,
2013-01-30 16:34:00,31.5,26.6,28.64,West,278,7.0,17.0,82,0.00,,,-99.99,Weather View 32 v70,2013-01-30 22:34:00,
2013-01-30 16:39:00,31.3,27.0,28.64,WNW,288,11.0,17.0,84,0.00,,,-99.99,Weather View 32 v70,2013-01-30 22:39:00,
2013-01-30 16:49:00,31.1,27.7,28.64,WNW,293,6.0,17.0,87,0.00,,,-99.99,Weather View 32 v70,2013-01-30 22:49:00,
2013-01-30 16:59:00,30.6,26.9,28.67,West,274,11.0,17.0,86,0.00,,,-99.99,Weather View 32 v70,2013-01-30 22:59:00,
2013-01-30 17:09:00,30.6,25.4,28.67,NW,314,10.0,17.0,81,0.00,,,-99.99,Weather View 32 v70,2013-01-30 23:09:00,
2013-01-30 17:19:00,30.4,25.8,28.67,WSW,247,11.0,17.0,83,0.00,,,-99.99,Weather View 32 v70,2013-01-30 23:19:00,
2013-01-30 17:24:00,30.4,26.1,28.67,NW,305,12.0,17.0,84,0.00,,,-99.99,Weather View 32 v70,2013-01-30 23:24:00,
2013-01-30 17:29:00,30.4,26.7,28.67,WSW,253,10.0,17.0,86,0.00,,,-99.99,Weather View 32 v70,2013-01-30 23:29:00,
2013-01-30 17:39:00,30.2,26.8,28.67,West,276,13.0,17.0,87,0.00,,,-99.99,Weather View 32 v70,2013-01-30 23:39:00,
2013-01-30 17:45:00,29.8,26.7,28.70,WNW,284,8.0,17.0,88,0.00,,,-99.99,Weather View 32 v70,2013-01-30 23:45:00,
2013-01-30 17:54:00,29.8,27.3,28.70,WSW,246,9.0,17.0,90,0.00,,,-99.99,Weather View 32 v70,2013-01-30 23:54:00,
2013-01-30 18:02:00,29.8,27.5,28.70,West,275,9.0,17.0,91,0.00,,,-99.99,Weather View 32 v70,2013-01-31 00:02:00,
2013-01-30 18:09:00,29.7,27.4,28.70,NW,311,11.0,15.0,91,0.00,,,-99.99,Weather View 32 v70,2013-01-31 00:09:00,
2013-01-30 18:19:00,29.7,25.7,28.73,South,172,7.0,15.0,85,0.00,,,-99.99,Weather View 32 v70,2013-01-31 00:19:00,
2013-01-30 18:24:00,29.7,25.7,28.73,WNW,290,8.0,15.0,85,0.00,,,-99.99,Weather View 32 v70,2013-01-31 00:24:00,
2013-01-30 18:29:00,29.5,25.2,28.73,NW,309,12.0,15.0,84,0.00,,,-99.99,Weather View 32 v70,2013-01-31 00:29:00,
2013-01-30 18:34:00,29.5,24.7,28.73,WNW,298,9.0,15.0,82,0.00,,,-99.99,Weather View 32 v70,2013-01-31 00:34:00,
2013-01-30 18:44:00,29.5,24.7,28.73,WNW,293,13.0,15.0,82,0.00,,,-99.99,Weather View 32 v70,2013-01-31 00:44:00,
2013-01-30 18:49:00,29.3,24.8,28.73,WNW,303,10.0,15.0,83,0.00,,,-99.99,Weather View 32 v70,2013-01-31 00:49:00,
2013-01-30 18:54:00,29.1,25.2,28.73,WNW,292,11.0,15.0,85,0.00,,,-99.99,Weather View 32 v70,2013-01-31 00:54:00,
2013-01-30 18:59:00,28.6,24.9,28.76,West,277,12.0,18.0,86,0.00,,,-99.99,Weather View 32 v70,2013-01-31 00:59:00,
2013-01-30 19:09:00,28.0,24.9,28.76,WNW,288,15.0,21.0,88,0.00,,,-99.99,Weather View 32 v70,2013-01-31 01:09:00,
2013-01-30 19:14:00,28.0,24.4,28.76,WSW,256,14.0,21.0,86,0.00,,,-99.99,Weather View 32 v70,2013-01-31 01:14:00,
2013-01-30 19:19:00,27.9,23.7,28.76,West,279,13.0,21.0,84,0.00,,,-99.99,Weather View 32 v70,2013-01-31 01:19:00,
2013-01-30 19:29:00,27.7,22.3,28.76,NW,315,10.0,21.0,80,0.00,,,-99.99,Weather View 32 v70,2013-01-31 01:29:00,
2013-01-30 19:34:00,27.5,21.8,28.76,West,274,9.0,21.0,79,0.00,,,-99.99,Weather View 32 v70,2013-01-31 01:34:00,
2013-01-30 19:39:00,27.5,21.8,28.76,West,262,12.0,21.0,79,0.00,,,-99.99,Weather View 32 v70,2013-01-31 01:39:00,
2013-01-30 19:49:00,27.7,21.7,28.76,WNW,292,12.0,21.0,78,0.00,,,-99.99,Weather View 32 v70,2013-01-31 01:49:00,
2013-01-30 19:54:00,27.7,22.0,28.76,WNW,286,15.0,21.0,79,0.00,,,-99.99,Weather View 32 v70,2013-01-31 01:54:00,
2013-01-30 19:59:00,27.3,21.1,28.76,West,281,17.0,21.0,77,0.00,,,-99.99,Weather View 32 v70,2013-01-31 01:59:00,
2013-01-30 20:10:00,27.3,20.8,28.76,WNW,283,15.0,21.0,76,0.00,,,-99.99,Weather View 32 v70,2013-01-31 02:10:00,
2013-01-30 20:19:00,26.8,20.2,28.79,West,279,13.0,21.0,76,0.00,,,-99.99,Weather View 32 v70,2013-01-31 02:19:00,
2013-01-30 20:24:00,26.4,19.9,28.79,WNW,296,13.0,21.0,76,0.00,,,-99.99,Weather View 32 v70,2013-01-31 02:24:00,
2013-01-30 20:29:00,26.2,20.0,28.79,WNW,292,18.0,21.0,77,0.00,,,-99.99,Weather View 32 v70,2013-01-31 02:29:00,
2013-01-30 20:34:00,25.9,19.4,28.79,WNW,303,17.0,21.0,76,0.00,,,-99.99,Weather View 32 v70,2013-01-31 02:34:00,
2013-01-30 20:39:00,25.9,19.4,28.79,WSW,251,8.0,21.0,76,0.00,,,-99.99,Weather View 32 v70,2013-01-31 02:39:00,
2013-01-30 20:44:00,25.9,18.7,28.79,WSW,246,13.0,21.0,74,0.00,,,-99.99,Weather View 32 v70,2013-01-31 02:44:00,
2013-01-30 20:54:00,24.6,16.9,28.79,West,280,14.0,21.0,72,0.00,,,-99.99,Weather View 32 v70,2013-01-31 02:54:00,
2013-01-30 20:59:00,24.6,16.6,28.82,WNW,289,13.0,21.0,71,0.00,,,-99.99,Weather View 32 v70,2013-01-31 02:59:00,
2013-01-30 21:05:00,24.6,16.2,28.82,WNW,289,16.0,21.0,70,0.00,,,-99.99,Weather View 32 v70,2013-01-31 03:05:00,
2013-01-30 21:14:00,24.6,16.9,28.82,WNW,284,11.0,21.0,72,0.00,,,-99.99,Weather View 32 v70,2013-01-31 03:14:00,
2013-01-30 21:20:00,24.3,16.5,28.82,WNW,297,14.0,21.0,72,0.00,,,-99.99,Weather View 32 v70,2013-01-31 03:20:00,
2013-01-30 21:29:00,24.1,16.0,28.84,WNW,288,14.0,20.0,71,0.00,,,-99.99,Weather View 32 v70,2013-01-31 03:29:00,
2013-01-30 21:34:00,24.1,16.4,28.84,WNW,299,8.0,20.0,72,0.00,,,-99.99,Weather View 32 v70,2013-01-31 03:34:00,
2013-01-30 21:39:00,24.1,16.4,28.84,WNW,292,14.0,21.0,72,0.00,,,-99.99,Weather View 32 v70,2013-01-31 03:39:00,
2013-01-30 21:49:00,24.1,17.3,28.84,West,280,12.0,21.0,75,0.00,,,-99.99,Weather View 32 v70,2013-01-31 03:49:00,
2013-01-30 21:54:00,24.1,17.3,28.84,WNW,286,10.0,21.0,75,0.00,,,-99.99,Weather View 32 v70,2013-01-31 03:54:00,
2013-01-30 21:59:00,23.9,17.1,28.84,NW,307,11.0,21.0,75,0.00,,,-99.99,Weather View 32 v70,2013-01-31 03:59:00,
2013-01-30 22:05:00,23.7,15.7,28.84,WNW,284,15.0,21.0,71,0.00,,,-99.99,Weather View 32 v70,2013-01-31 04:05:00,
2013-01-30 22:14:00,23.5,13.5,28.84,WNW,297,15.0,24.0,65,0.00,,,-99.99,Weather View 32 v70,2013-01-31 04:14:00,
2013-01-30 22:19:00,23.5,13.9,28.84,West,274,17.0,24.0,66,0.00,,,-99.99,Weather View 32 v70,2013-01-31 04:19:00,
2013-01-30 22:25:00,23.2,13.9,28.84,West,259,12.0,24.0,67,0.00,,,-99.99,Weather View 32 v70,2013-01-31 04:25:00,
2013-01-30 22:34:00,22.8,13.5,28.87,WNW,293,17.0,24.0,67,0.00,,,-99.99,Weather View 32 v70,2013-01-31 04:34:00,
2013-01-30 22:39:00,22.8,13.2,28.87,NW,309,15.0,24.0,66,0.00,,,-99.99,Weather View 32 v70,2013-01-31 04:39:00,
2013-01-30 22:44:00,22.6,13.3,28.87,WSW,248,14.0,24.0,67,0.00,,,-99.99,Weather View 32 v70,2013-01-31 04:44:00,
2013-01-30 22:49:00,22.3,12.3,28.87,WNW,291,14.0,24.0,65,0.00,,,-99.99,Weather View 32 v70,2013-01-31 04:49:00,
2013-01-30 22:59:00,21.9,12.6,28.90,WNW,286,7.0,24.0,67,0.00,,,-99.99,Weather View 32 v70,2013-01-31 04:59:00,
2013-01-30 23:05:00,21.7,11.4,28.90,West,273,14.0,24.0,64,0.00,,,-99.99,Weather View 32 v70,2013-01-31 05:05:00,
2013-01-30 23:10:00,21.7,10.4,28.90,West,278,19.0,22.0,61,0.00,,,-99.99,Weather View 32 v70,2013-01-31 05:10:00,
2013-01-30 23:14:00,21.7,10.0,28.90,WNW,298,19.0,22.0,60,0.00,,,-99.99,Weather View 32 v70,2013-01-31 05:14:00,
2013-01-30 23:25:00,21.6,10.9,28.90,WSW,254,11.0,22.0,63,0.00,,,-99.99,Weather View 32 v70,2013-01-31 05:25:00,
2013-01-30 23:34:00,21.4,10.7,28.90,WNW,293,11.0,22.0,63,0.00,,,-99.99,Weather View 32 v70,2013-01-31 05:34:00,
2013-01-30 23:39:00,21.4,11.1,28.90,WNW,290,18.0,22.0,64,0.00,,,-99.99,Weather View 32 v70,2013-01-31 05:39:00,
2013-01-30 23:49:00,21.0,14.3,28.93,WNW,282,7.0,22.0,75,0.00,,,-99.99,Weather View 32 v70,2013-01-31 05:49:00,
2013-01-30 23:54:00,21.0,15.5,28.93,WNW,286,13.0,22.0,79,0.00,,,-99.99,Weather View 32 v70,2013-01-31 05:54:00,